Regional Weather Roundup
Issued by NWS

Home | Current Version | Previous Version | Graphics & Text | Print | Product List | Glossary On
Versions: 1 2 3 4 5 6 7 8 9 10 11 12 13 14 15 16 17 18 19 20 21 22 23 24 25 26 27 28 29 30 31 32 33 34 35 36 37 38 39 40 41 42 43 44 45 46 47 48 49 50
000
ASUS43 KDTX 300010
RWRMI
MICHIGAN HOURLY REGIONAL WEATHER ROUNDUP
NATIONAL WEATHER SERVICE DETROIT/PONTIAC MI
800 PM EDT SUN MAR 29 2015

NOTE: "FAIR" INDICATES FEW OR NO CLOUDS BELOW 12,000 FEET WITH NO
SIGNIFICANT WEATHER AND/OR OBSTRUCTION TO VISIBILITY.

MIZ047>049-052>055-059>063-066>070-074>076-081>083-300100-
SOUTHEAST LOWER MICHIGAN

CITY           SKY/WX    TMP DP  RH WIND       PRES   REMARKS
ADRIAN         CLOUDY    39  24  55 SW21      29.85F
6HR MIN TEMP:  38; 6HR MAX TEMP:  43; 6HR PCP: TRACE;

ALMA           CLOUDY    36  31  82 S16G24    29.69F
ANN ARBOR      CLOUDY    39  24  55 SW15G22   29.83F
BAD AXE        CLOUDY    34  29  83 SW22G29   29.72F
6HR MIN TEMP:  32; 6HR MAX TEMP:  41;

DETROIT CITY   CLOUDY    42  24  49 SW18G28   29.83F
6HR MIN TEMP:  40; 6HR MAX TEMP:  45; 6HR PCP: TRACE;

DETROIT        CLOUDY    41  25  53 S18       29.85F
6HR MIN TEMP:  39; 6HR MAX TEMP:  47; 6HR PCP: TRACE;

FLINT          CLOUDY    38  28  67 S14G28    29.77F
6HR MIN TEMP:  35; 6HR MAX TEMP:  46; 6HR PCP:  0.01;

GROSSE ILE     CLOUDY    39  27  60 S15       29.84F
HILLSDALE      CLOUDY    40  23  51 SW14G21   29.81F
6HR MIN TEMP:  37; 6HR MAX TEMP:  43;

HOWELL         CLOUDY    37  26  64 S17G24    29.77F
6HR MIN TEMP:  34; 6HR MAX TEMP:  44;


CITY           SKY/WX    TMP DP  RH WIND       PRES   REMARKS
JACKSON        CLOUDY    39  24  55 SW21G35   29.79F
6HR MIN TEMP:  35; 6HR MAX TEMP:  45; 6HR PCP: TRACE;

LAMBERTVILLE   CLOUDY    41  25  52 SW15G22   29.87F
LANSING        CLOUDY    38  25  59 SW21G32   29.74F
6HR MIN TEMP:  34; 6HR MAX TEMP:  44; 6HR PCP: TRACE;

LAPEER         NOT AVBL
MASON          CLOUDY    37  25  61 SW9G21    29.76F
MONROE         CLOUDY    43  23  45 SW16G23   29.85F
MT. CLEMENS    CLOUDY    39  26  59 S20G28    29.80F
6HR MIN TEMP:  38; 6HR MAX TEMP:  41; 6HR PCP: TRACE;

PONTIAC        CLOUDY    38  24  57 S17G30    29.78F
6HR MIN TEMP:  34; 6HR MAX TEMP:  44; 6HR PCP: TRACE;

PORT HOPE        N/A     35  29  78 S10G25    29.69F
6HR MIN TEMP:  33; 6HR MAX TEMP:  44; 6HR PCP:  0.02;

PORT HURON     CLOUDY    36  30  80 S13G20    29.83S
TRI CITIES     LGT SNOW  36  30  79 S17G30    29.69F
6HR MIN TEMP:  34; 6HR MAX TEMP:  44; 6HR PCP: TRACE;

YPSILANTI      CLOUDY    43  23  45 SW18G29   29.84F
6HR MIN TEMP:  41; 6HR MAX TEMP:  48; 6HR PCP: TRACE;

$$
MIZ043>046-050>051-056>058-064>065-071>073-077>080-300100-
SOUTHWEST LOWER MICHIGAN

CITY           SKY/WX    TMP DP  RH WIND       PRES   REMARKS
BATTLE CREEK   CLOUDY    38  26  62 SW20G29   29.77F
6HR MIN TEMP:  36; 6HR MAX TEMP:  45; 6HR PCP: TRACE;

BENTON HARBOR  CLOUDY    41  31  67 S14G25    29.76F
6HR MIN TEMP:  35; 6HR MAX TEMP:  41; 6HR PCP:  0.03;

BIG RAPIDS     LGT SNOW  33  32  93 SW18G28   29.64F
6HR MIN TEMP:  32; 6HR MAX TEMP:  41; 6HR PCP:  0.01;

COLDWATER      CLOUDY    39  23  53 SW14G23   29.81F
6HR MIN TEMP:  37; 6HR MAX TEMP:  43;

HOLLAND        LGT RAIN  40  32  73 SW29G38   29.73S
6HR MIN TEMP:  34; 6HR MAX TEMP:  42; 6HR PCP:  0.06;

GRAND RAPIDS   LGT RAIN  37  28  70 SW22G29   29.71F
6HR MIN TEMP:  33; 6HR MAX TEMP:  44; 6HR PCP:  0.04;

KALAMAZOO      CLOUDY    39  27  62 S17G25    29.77F
6HR MIN TEMP:  36; 6HR MAX TEMP:  44; 6HR PCP:  0.03;

MARSHALL       CLOUDY    38  25  59 SW14G25   29.78F
MUSKEGON       LGT SNOW  36  32  85 S23G35    29.71R FOG
6HR MIN TEMP:  33; 6HR MAX TEMP:  37; 6HR PCP:  0.08;

$$
MIZ016>042-300100-
NORTHERN LOWER MICHIGAN

CITY           SKY/WX    TMP DP  RH WIND       PRES   REMARKS
ALPENA         CLOUDY    34  30  85 SW13G23   29.59F
6HR MIN TEMP:  33; 6HR MAX TEMP:  44; 6HR PCP: TRACE;

BEAVER ISLAND  LGT SNOW  33  32  96 SW16G28   29.50S
6HR MIN TEMP:  32; 6HR MAX TEMP:  37;

BELLAIRE       LGT SNOW  33  32  94 S8        29.57F
6HR MIN TEMP:  32; 6HR MAX TEMP:  42;

CADILLAC       LGT SNOW  32  31  96 SW13      29.58F VSB 3/4
CHARLEVOIX     LGT SNOW  34  33  96 SW16G24   29.56S
6HR MIN TEMP:  32; 6HR MAX TEMP:  41;

FRANKFORT      LGT SNOW  37  32  83 SW17G32   29.59S
GAYLORD        LGT SNOW  32  31  96 SW15G31   29.52F FOG
6HR MIN TEMP:  30; 6HR MAX TEMP:  38; 6HR PCP:  0.03;

GRAYLING       LGT SNOW  32  31  94 SW14G23   29.57F
6HR MIN TEMP:  31; 6HR MAX TEMP:  40;

HARBOR SPRINGS LGT RAIN  33  31  94 SW16G28   29.51F
HOUGHTON LAKE  LGT SNOW  33  30  88 SW16G26   29.61S FOG
6HR MIN TEMP:  32; 6HR MAX TEMP:  42; 6HR PCP:  0.02;

MANISTEE       CLOUDY    36  30  80 SW14G28   29.61F
OSCODA         LGT SNOW  34  32  93 SW24G32   29.63F
PELLSTON       LGT SNOW  34  31  88 SW18G31   29.52S FOG
6HR MIN TEMP:  32; 6HR MAX TEMP:  42; 6HR PCP:  0.17;

TRAVERSE CITY  LGT RAIN  35  32  88 VRB7G20   29.56F FOG
6HR MIN TEMP:  33; 6HR MAX TEMP:  42; 6HR PCP:  0.08;

$$
MIZ007>008-015-300100-
EASTERN UPPER MICHIGAN

CITY           SKY/WX    TMP DP  RH WIND       PRES   REMARKS
KINROSS        CLOUDY    32  30  93 S8        29.49F VSB 3/4
6HR MIN TEMP:  32; 6HR MAX TEMP:  39;

MACKINAC ISLAN SNOW      32  32 100 SW10G22   29.50F VSB 1/2
6HR MIN TEMP:  32; 6HR MAX TEMP:  39; 6HR PCP:  0.04;

NEWBERRY       LGT SNOW  32  31  98 SW16      29.45F
S. S. MARIE    LGT SNOW  32  30  92 S9        29.49F FOG
6HR MIN TEMP:  32; 6HR MAX TEMP:  39; 6HR PCP:  0.21;

$$
MIZ004>006-011>014-085-300100-
CENTRAL UPPER MICHIGAN

CITY           SKY/WX    TMP DP  RH WIND       PRES   REMARKS
MANISTIQUE     LGT SNOW  32  32 100 SW7       29.48S VSB 3/4
ESCANABA       CLOUDY    34  30  86 W12       29.51R
6HR MIN TEMP:  32; 6HR MAX TEMP:  34; 6HR PCP:  0.03;

MENOMINEE      CLOUDY    37  34  87 W8        29.57R
6HR MIN TEMP:  32; 6HR MAX TEMP:  37; 6HR PCP:  0.02;

SAWYER-GWINN   LGT SNOW  34  32  93 NW12      29.47R
$$
MIZ001>003-009>011-084-300100-
WESTERN UPPER MICHIGAN

CITY           SKY/WX    TMP DP  RH WIND       PRES   REMARKS
IRON MOUNTAIN  CLOUDY    37  31  78 NW22G28   29.54R
6HR MIN TEMP:  31; 6HR MAX TEMP:  37; 6HR PCP:  0.01;

HOUGHTON       CLOUDY    36  31  82 NW22G31   29.54R
6HR MIN TEMP:  33; 6HR MAX TEMP:  36; 6HR PCP:  0.09;

COPPER HARBOR    N/A     35  32  88 N18       29.50R
6HR MIN TEMP:  33; 6HR MAX TEMP:  36; 6HR PCP:  0.12;

IRONWOOD       CLOUDY    37  34  87 W14G21    29.65R
6HR MIN TEMP:  34; 6HR MAX TEMP:  37;

$$

ABBREVIATIONS USED IN REMARKS
   TC - TEMPERATURE IN CELSIUS
  WCI - WIND CHILL INDEX
   HX - HEAT INDEX
  VSB - VISIBILITY



USA.gov is the U.S. government's official web portal to all federal, state and local government web resources and services.